Time,TemperatureF,DewpointF,PressureIn,WindDirection,WindDirectionDegrees,WindSpeedMPH,WindSpeedGustMPH,Humidity,HourlyPrecipIn,Conditions,Clouds,dailyrainin,SolarRadiationWatts/m^2,SoftwareType,DateUTC
2013-11-28 00:22:00,26.0,17.0,-100.00,West,264,7.0,23.0,67,0.00,,,0.49,1.000000,,2013-11-28 05:22:00,
2013-11-28 00:33:00,26.0,17.0,-100.00,West,264,7.0,23.0,67,0.00,,,0.49,1.000000,,2013-11-28 05:33:00,
2013-11-28 00:43:00,26.0,17.0,-100.00,West,264,7.0,23.0,67,0.00,,,0.49,1.000000,,2013-11-28 05:43:00,
2013-11-28 00:53:00,26.0,17.0,-100.00,West,264,7.0,23.0,67,0.00,,,0.49,1.000000,,2013-11-28 05:53:00,
2013-11-28 01:22:00,25.0,16.0,-100.00,WSW,257,8.0,19.0,68,0.00,,,0.37,1.000000,,2013-11-28 06:22:00,
2013-11-28 01:33:00,25.0,16.0,-100.00,WSW,257,8.0,19.0,68,0.00,,,0.37,1.000000,,2013-11-28 06:33:00,
2013-11-28 01:42:00,25.0,16.0,-100.00,WSW,257,8.0,19.0,68,0.00,,,0.37,1.000000,,2013-11-28 06:42:00,
2013-11-28 01:52:00,25.0,16.0,-100.00,WSW,257,8.0,19.0,68,0.00,,,0.37,1.000000,,2013-11-28 06:52:00,
2013-11-28 02:22:00,24.0,16.0,-100.00,WSW,250,7.0,22.0,70,0.00,,,0.18,1.000000,,2013-11-28 07:22:00,
2013-11-28 02:32:00,24.0,16.0,-100.00,WSW,250,7.0,22.0,70,0.00,,,0.18,1.000000,,2013-11-28 07:32:00,
2013-11-28 02:42:00,24.0,16.0,-100.00,WSW,250,7.0,22.0,70,0.00,,,0.18,1.000000,,2013-11-28 07:42:00,
2013-11-28 02:52:00,24.0,16.0,-100.00,WSW,250,7.0,22.0,70,0.00,,,0.18,1.000000,,2013-11-28 07:52:00,
2013-11-28 03:22:00,23.0,16.0,-100.00,West,266,5.0,18.0,74,0.00,,,0.09,1.000000,,2013-11-28 08:22:00,
2013-11-28 03:32:00,23.0,16.0,-100.00,West,266,5.0,18.0,74,0.00,,,0.09,1.000000,,2013-11-28 08:32:00,
2013-11-28 03:42:00,23.0,16.0,-100.00,West,266,5.0,18.0,74,0.00,,,0.09,1.000000,,2013-11-28 08:42:00,
2013-11-28 03:53:00,23.0,16.0,-100.00,West,266,5.0,18.0,74,0.00,,,0.09,1.000000,,2013-11-28 08:53:00,
2013-11-28 04:22:00,24.0,17.0,-100.00,WSW,246,9.0,19.0,73,0.00,,,0.07,1.000000,,2013-11-28 09:22:00,
2013-11-28 04:33:00,24.0,17.0,-100.00,WSW,246,9.0,19.0,73,0.00,,,0.07,1.000000,,2013-11-28 09:33:00,
2013-11-28 04:43:00,24.0,17.0,-100.00,WSW,246,9.0,19.0,73,0.00,,,0.07,1.000000,,2013-11-28 09:43:00,
2013-11-28 04:53:00,24.0,17.0,-100.00,WSW,246,9.0,19.0,73,0.00,,,0.07,1.000000,,2013-11-28 09:53:00,
2013-11-28 05:23:00,24.0,16.0,-100.00,WSW,241,7.0,19.0,71,0.00,,,0.06,1.000000,,2013-11-28 10:23:00,
2013-11-28 05:33:00,24.0,16.0,-100.00,WSW,241,7.0,19.0,71,0.00,,,0.06,1.000000,,2013-11-28 10:33:00,
2013-11-28 05:43:00,24.0,16.0,-100.00,WSW,241,7.0,19.0,71,0.00,,,0.06,1.000000,,2013-11-28 10:43:00,
2013-11-28 05:52:00,24.0,16.0,-100.00,WSW,241,7.0,19.0,71,0.00,,,0.06,1.000000,,2013-11-28 10:52:00,
2013-11-28 06:22:00,24.0,17.0,-100.00,West,275,4.0,14.0,74,0.00,,,0.05,1.000000,,2013-11-28 11:22:00,
2013-11-28 06:33:00,24.0,17.0,-100.00,West,275,4.0,14.0,74,0.00,,,0.05,1.000000,,2013-11-28 11:33:00,
2013-11-28 06:42:00,24.0,17.0,-100.00,West,275,4.0,14.0,74,0.00,,,0.05,1.000000,,2013-11-28 11:42:00,
2013-11-28 06:52:00,24.0,17.0,-100.00,West,275,4.0,14.0,74,0.00,,,0.05,1.000000,,2013-11-28 11:52:00,
2013-11-28 07:22:00,23.0,18.0,-100.00,WSW,253,5.0,12.0,80,0.00,,,0.02,1.000000,,2013-11-28 12:22:00,
2013-11-28 07:32:00,23.0,18.0,-100.00,WSW,253,5.0,12.0,80,0.00,,,0.02,1.000000,,2013-11-28 12:32:00,
2013-11-28 07:42:00,23.0,18.0,-100.00,WSW,253,5.0,12.0,80,0.00,,,0.02,1.000000,,2013-11-28 12:42:00,
2013-11-28 07:52:00,23.0,18.0,-100.00,WSW,253,5.0,12.0,80,0.00,,,0.02,1.000000,,2013-11-28 12:52:00,
2013-11-28 08:22:00,23.0,18.0,-100.00,SW,231,6.0,11.0,80,0.00,,,0.00,15.000000,,2013-11-28 13:22:00,
2013-11-28 08:32:00,23.0,18.0,-100.00,SW,231,6.0,11.0,80,0.00,,,0.00,15.000000,,2013-11-28 13:32:00,
2013-11-28 08:42:00,23.0,18.0,-100.00,SW,231,6.0,11.0,80,0.00,,,0.00,15.000000,,2013-11-28 13:42:00,
2013-11-28 08:52:00,23.0,18.0,-100.00,SW,231,6.0,11.0,80,0.00,,,0.00,15.000000,,2013-11-28 13:52:00,
2013-11-28 09:22:00,25.0,18.0,-100.00,WSW,238,5.0,13.0,74,0.00,,,0.00,86.000000,,2013-11-28 14:22:00,
2013-11-28 09:32:00,25.0,18.0,-100.00,WSW,238,5.0,13.0,74,0.00,,,0.00,86.000000,,2013-11-28 14:32:00,
2013-11-28 09:42:00,25.0,18.0,-100.00,WSW,238,5.0,13.0,74,0.00,,,0.00,86.000000,,2013-11-28 14:42:00,
2013-11-28 09:52:00,25.0,18.0,-100.00,WSW,238,5.0,13.0,74,0.00,,,0.00,86.000000,,2013-11-28 14:52:00,
2013-11-28 10:22:00,25.0,18.0,-100.00,SW,219,4.0,12.0,75,0.00,,,0.00,143.000000,,2013-11-28 15:22:00,
2013-11-28 10:34:00,25.0,18.0,-100.00,SW,219,4.0,12.0,75,0.00,,,0.00,143.000000,,2013-11-28 15:34:00,
2013-11-28 10:44:00,25.0,18.0,-100.00,SW,219,4.0,12.0,75,0.00,,,0.00,143.000000,,2013-11-28 15:44:00,
2013-11-28 10:54:00,25.0,18.0,-100.00,SW,219,4.0,12.0,75,0.00,,,0.00,143.000000,,2013-11-28 15:54:00,
2013-11-28 11:23:00,27.0,17.0,-100.00,SW,233,7.0,13.0,65,0.00,,,0.00,254.000000,,2013-11-28 16:23:00,
2013-11-28 11:33:00,27.0,17.0,-100.00,SW,233,7.0,13.0,65,0.00,,,0.00,254.000000,,2013-11-28 16:33:00,
2013-11-28 11:43:00,27.0,17.0,-100.00,SW,233,7.0,13.0,65,0.00,,,0.00,254.000000,,2013-11-28 16:43:00,
2013-11-28 11:53:00,27.0,17.0,-100.00,SW,233,7.0,13.0,65,0.00,,,0.00,254.000000,,2013-11-28 16:53:00,
2013-11-28 12:23:00,26.0,18.0,-100.00,WSW,238,5.0,16.0,71,0.00,,,0.00,257.000000,,2013-11-28 17:23:00,
2013-11-28 12:33:00,26.0,18.0,-100.00,WSW,238,5.0,16.0,71,0.00,,,0.00,257.000000,,2013-11-28 17:33:00,
2013-11-28 12:42:00,26.0,18.0,-100.00,WSW,238,5.0,16.0,71,0.00,,,0.00,257.000000,,2013-11-28 17:42:00,
2013-11-28 12:52:00,26.0,18.0,-100.00,WSW,238,5.0,16.0,71,0.00,,,0.00,257.000000,,2013-11-28 17:52:00,
2013-11-28 13:22:00,27.0,21.0,-100.00,West,267,4.0,12.0,77,0.00,,,0.00,170.000000,,2013-11-28 18:22:00,
2013-11-28 13:33:00,27.0,21.0,-100.00,West,267,4.0,12.0,77,0.00,,,0.00,170.000000,,2013-11-28 18:33:00,
2013-11-28 13:42:00,27.0,21.0,-100.00,West,267,4.0,12.0,77,0.00,,,0.00,170.000000,,2013-11-28 18:42:00,
2013-11-28 13:52:00,27.0,21.0,-100.00,West,267,4.0,12.0,77,0.00,,,0.00,170.000000,,2013-11-28 18:52:00,
2013-11-28 14:22:00,27.0,21.0,-100.00,West,260,4.0,15.0,78,0.00,,,0.00,209.000000,,2013-11-28 19:22:00,
2013-11-28 14:32:00,27.0,21.0,-100.00,West,260,4.0,15.0,78,0.00,,,0.00,209.000000,,2013-11-28 19:32:00,
2013-11-28 14:42:00,27.0,21.0,-100.00,West,260,4.0,15.0,78,0.00,,,0.00,209.000000,,2013-11-28 19:42:00,
2013-11-28 14:52:00,27.0,21.0,-100.00,West,260,4.0,15.0,78,0.00,,,0.00,209.000000,,2013-11-28 19:52:00,
2013-11-28 15:22:00,27.0,19.0,-100.00,WSW,250,4.0,11.0,72,0.00,,,0.00,132.000000,,2013-11-28 20:22:00,
2013-11-28 15:32:00,27.0,19.0,-100.00,WSW,250,4.0,11.0,72,0.00,,,0.00,132.000000,,2013-11-28 20:32:00,
2013-11-28 15:42:00,27.0,19.0,-100.00,WSW,250,4.0,11.0,72,0.00,,,0.00,132.000000,,2013-11-28 20:42:00,
2013-11-28 15:52:00,27.0,19.0,-100.00,WSW,250,4.0,11.0,72,0.00,,,0.00,132.000000,,2013-11-28 20:52:00,
2013-11-28 16:22:00,27.0,18.0,-100.00,West,266,3.0,11.0,68,0.00,,,0.00,51.000000,,2013-11-28 21:22:00,
2013-11-28 16:32:00,27.0,18.0,-100.00,West,266,3.0,11.0,68,0.00,,,0.00,51.000000,,2013-11-28 21:32:00,
2013-11-28 16:43:00,27.0,18.0,-100.00,West,266,3.0,11.0,68,0.00,,,0.00,51.000000,,2013-11-28 21:43:00,
2013-11-28 16:53:00,27.0,18.0,-100.00,West,266,3.0,11.0,68,0.00,,,0.00,51.000000,,2013-11-28 21:53:00,
2013-11-28 17:23:00,26.0,17.0,-100.00,WSW,249,3.0,10.0,69,0.00,,,0.00,8.000000,,2013-11-28 22:23:00,
2013-11-28 17:33:00,26.0,17.0,-100.00,WSW,249,3.0,10.0,69,0.00,,,0.00,8.000000,,2013-11-28 22:33:00,
2013-11-28 17:42:00,26.0,17.0,-100.00,WSW,249,3.0,10.0,69,0.00,,,0.00,8.000000,,2013-11-28 22:42:00,
2013-11-28 17:53:00,26.0,17.0,-100.00,WSW,249,3.0,10.0,69,0.00,,,0.00,8.000000,,2013-11-28 22:53:00,
2013-11-28 18:22:00,26.0,18.0,-100.00,WSW,257,2.0,8.0,70,0.00,,,0.00,1.000000,,2013-11-28 23:22:00,
2013-11-28 18:33:00,26.0,18.0,-100.00,WSW,257,2.0,8.0,70,0.00,,,0.00,1.000000,,2013-11-28 23:33:00,
2013-11-28 18:42:00,26.0,18.0,-100.00,WSW,257,2.0,8.0,70,0.00,,,0.00,1.000000,,2013-11-28 23:42:00,
2013-11-28 18:52:00,26.0,18.0,-100.00,WSW,257,2.0,8.0,70,0.00,,,0.00,1.000000,,2013-11-28 23:52:00,
2013-11-28 19:22:00,26.0,18.0,-100.00,West,270,1.0,6.0,72,0.00,,,0.00,1.000000,,2013-11-29 00:22:00,
2013-11-28 19:32:00,26.0,18.0,-100.00,West,270,1.0,6.0,72,0.00,,,0.00,1.000000,,2013-11-29 00:32:00,
2013-11-28 19:42:00,26.0,18.0,-100.00,West,270,1.0,6.0,72,0.00,,,0.00,1.000000,,2013-11-29 00:42:00,
2013-11-28 19:52:00,26.0,18.0,-100.00,West,270,1.0,6.0,72,0.00,,,0.00,1.000000,,2013-11-29 00:52:00,
2013-11-28 20:22:00,26.0,18.0,-100.00,WNW,288,2.0,6.0,71,0.00,,,0.00,1.000000,,2013-11-29 01:22:00,
2013-11-28 20:32:00,26.0,18.0,-100.00,WNW,288,2.0,6.0,71,0.00,,,0.00,1.000000,,2013-11-29 01:32:00,
2013-11-28 20:42:00,26.0,18.0,-100.00,WNW,288,2.0,6.0,71,0.00,,,0.00,1.000000,,2013-11-29 01:42:00,
2013-11-28 20:52:00,26.0,18.0,-100.00,WNW,288,2.0,6.0,71,0.00,,,0.00,1.000000,,2013-11-29 01:52:00,
2013-11-28 21:22:00,26.0,18.0,-100.00,West,279,1.0,5.0,70,0.00,,,0.00,1.000000,,2013-11-29 02:22:00,
2013-11-28 21:32:00,26.0,18.0,-100.00,West,279,1.0,5.0,70,0.00,,,0.00,1.000000,,2013-11-29 02:32:00,
2013-11-28 21:42:00,26.0,18.0,-100.00,West,279,1.0,5.0,70,0.00,,,0.00,1.000000,,2013-11-29 02:42:00,
2013-11-28 21:52:00,26.0,18.0,-100.00,West,279,1.0,5.0,70,0.00,,,0.00,1.000000,,2013-11-29 02:52:00,
2013-11-28 22:22:00,26.0,18.0,-100.00,West,269,1.0,6.0,72,0.00,,,0.00,1.000000,,2013-11-29 03:22:00,
2013-11-28 22:33:00,26.0,18.0,-100.00,West,269,1.0,6.0,72,0.00,,,0.00,1.000000,,2013-11-29 03:33:00,
2013-11-28 22:43:00,26.0,18.0,-100.00,West,269,1.0,6.0,72,0.00,,,0.00,1.000000,,2013-11-29 03:43:00,
2013-11-28 22:53:00,26.0,18.0,-100.00,West,269,1.0,6.0,72,0.00,,,0.00,1.000000,,2013-11-29 03:53:00,
2013-11-28 23:23:00,25.0,18.0,-100.00,South,180,0.0,3.0,73,0.00,,,0.00,1.000000,,2013-11-29 04:23:00,
2013-11-28 23:33:00,25.0,18.0,-100.00,South,180,0.0,3.0,73,0.00,,,0.00,1.000000,,2013-11-29 04:33:00,
2013-11-28 23:43:00,25.0,18.0,-100.00,South,180,0.0,3.0,73,0.00,,,0.00,1.000000,,2013-11-29 04:43:00,
2013-11-28 23:52:00,25.0,18.0,-100.00,South,180,0.0,3.0,73,0.00,,,0.00,1.000000,,2013-11-29 04:52:00,